Regional Weather Roundup
Issued by NWS

Home | Current Version | Previous Version | Text Only | Print | Product List | Glossary Off
Versions: 1 2 3 4 5 6 7 8 9 10 11 12 13 14 15 16 17 18 19 20 21 22 23 24 25 26 27 28 29 30 31 32 33 34 35 36 37 38 39 40 41 42 43 44 45 46 47 48 49 50

000
ASUS43 KOAX 010910
RWRNE

WEATHER ROUNDUP FOR NEBRASKA
NATIONAL WEATHER SERVICE OMAHA NE
400 AM CDT MON SEP 01 2014

NOTES: SATELLITE DATA IS BEING USED TO AUGMENT CLOUD COVER ABOVE
       12000 FEET.
       "FAIR" INDICATES FEW OR NO CLOUDS BELOW 12,000 FEET WITH NO
       SIGNIFICANT WEATHER AND/OR OBSTRUCTIONS TO VISIBILITY.

  * THESE STATIONS DO NOT REPORT WEATHER SUCH AS RAIN...SNOW OR FOG.

NEZ001>004-019>022-054>056-011000-
NEBRASKA PANHANDLE

CITY           SKY/WX    TMP DP  RH WIND       PRES   REMARKS
SCOTTSBLUFF    CLEAR     50  48  93 N9        29.98F
ALLIANCE       CLEAR     45  44  97 NW7       29.96S
CHADRON        CLEAR     50  48  93 W7        29.94S
KIMBALL        PTCLDY    48  46  90 NW9       30.01S
SIDNEY         CLEAR     50  45  83 NW12      30.00R
$$

NEZ057>060-069>072-079>082-011000-
SOUTHWEST NEBRASKA

CITY           SKY/WX    TMP DP  RH WIND       PRES   REMARKS
NORTH PLATTE   CLEAR     51  50  96 NW8       29.92R
IMPERIAL       PTCLDY    54  50  86 W3        29.95R
LEXINGTON      CLEAR     56  54  93 W6        29.89R
MCCOOK         CLEAR     57  53  86 W9        29.93R
OGALLALA       CLEAR     51  49  92 CALM      29.95S
$$

NEZ005>010-023>029-035>040-094-011000-
NORTH CENTRAL NEBRASKA

CITY           SKY/WX    TMP DP  RH WIND       PRES   REMARKS
VALENTINE      CLEAR     54  53  97 W13       29.86R
AINSWORTH      CLEAR     54  53  97 W7        29.86R
BROKEN BOW     CLEAR     56  53  90 NW9       29.87R
O`NEILL        CLEAR     58  57  97 W10       29.81R
ORD            CLEAR     58  55  90 W8        29.83R
THEDFORD       CLEAR     53  52  96 W7        29.90S
$$

NEZ041-046>049-061>064-073>077-083>087-011000-
SOUTH CENTRAL NEBRASKA

CITY           SKY/WX    TMP DP  RH WIND       PRES   REMARKS
GRAND ISLAND   CLEAR     60  55  83 W12       29.80R
AURORA         CLEAR     60  57  91 NW10      29.78S
HASTINGS       CLEAR     61  53  75 NW9       29.80R
HEBRON         PTCLDY    65  61  86 SW3       29.77S
HOLDREGE       PTCLDY    58  55  88 NW9       29.86R
KEARNEY *      PTCLDY    57  54  88 W9        29.86R
YORK           CLEAR     61 N/A N/A NW10      29.76S
$$

NEZ011>018-030>034-042>045-011000-
NORTHEAST NEBRASKA

CITY           SKY/WX    TMP DP  RH WIND       PRES   REMARKS
NORFOLK        CLEAR     60  58  92 W7        29.76R
ALBION         CLEAR     59  56  90 NW6       29.78S
BLAIR          CLOUDY    68  66  92 SW8       29.72R
FREMONT        MOCLDY    65  64  94 NW8       29.73S
TEKAMAH        MOCLDY    65  64  97 SW5       29.72S
WAYNE          PTCLDY    61  59  95 CALM      29.74S
$$

NEZ050>053-065>068-078-088>093-011000-
SOUTHEAST NEBRASKA

CITY           SKY/WX    TMP DP  RH WIND       PRES   REMARKS
LINCOLN        MOCLDY    67  65  93 SW7       29.74R
OMAHA EPPLEY   CLOUDY    69  64  84 S8        29.72R
BEATRICE       MOCLDY    66  65  96 W7        29.76R
FALLS CITY     CLOUDY    68  66  93 W12G23    29.77R
NEBRASKA CITY  CLOUDY    67  67 100 SW13      29.72S
PLATTSMOUTH    CLOUDY    67  64  91 S7        29.72R
$$

NEZ044-045-051>053-067-011000-
OMAHA AREA

CITY           SKY/WX    TMP DP  RH WIND       PRES   REMARKS
OMAHA EPPLEY   CLOUDY    69  64  84 S8        29.72R
BLAIR          CLOUDY    68  66  92 SW8       29.72R
FREMONT        MOCLDY    65  64  94 NW8       29.73S
MILLARD        CLOUDY    68  65  90 SW3       29.71S
OFFUTT AFB     CLOUDY    68  68  99 SW3       29.72R
PLATTSMOUTH    CLOUDY    67  64  91 S7        29.72R
WAHOO          FAIR      66  63  91 W3        29.72S FOG
$$


USA.gov is the U.S. government's official web portal to all federal, state and local government web resources and services.